COSMOS 1413 (GLONASS)

Satellite information

Favourite Embed

Satellite Type and Status

PAYLOADIN ORBIT

Key statistics

Satellite COSMOS 1413 (GLONASS) at a glance.

Uptime

15769

Days in orbit

Revolutions

≈ 2.1

Per day

Orbit

MEO

Medium Earth Orbit

Inclination

64.8

Latest

Satellite identification and parameters

Extended collection of information and parameters for COSMOS 1413 (GLONASS).

Object identification

Identified? True

Debris? False

Object name: COSMOS 1413 (GLONASS)

International designator: 1982-100A

Object number (NORAD): 13603

Object ID (CCSDS): 13603

Country: COMMONWEALTH OF INDEPENDENT STATES (CIS)

Current information (Y/N): Y

RCS size: MEDIUM

Orbital parameters

Period: 673.317 minutes

Inclination: 64.7613 deg

SMA: 25447.192 km

Apoapsis: 19088.987 km

Periapsis: 19049.127 km

RAAN: 73.4348 deg

Eccentricy: 0.0007832

Argument of periapsis: 27.8285 deg

Mean anomaly: 54.5662 deg

Mean motion: 2.13866597 rev/day

Mean motion (dot): -0.00000024 rev/day2

B* drag term: 0.0 1/REarth

Two-line elements (TLE)

Creation date: Dec. 9, 2025, 3:16 p.m.

Reference frame: TEME

Reference center: EARTH

Epoch: Dec. 9, 2025, 6:47 a.m. UTC

TLE line 0: 0 COSMOS 1413 (GLONASS)

TLE line 1: 1 13603U 82100A 25343.28266904 -.00000024 00000-0 00000+0 0 9994

TLE line 2: 2 13603 64.7613 73.4348 0007832 27.8285 54.5662 2.13866597337113

Live tracking on map

Real-time ground track for satellite COSMOS 1413 (GLONASS).

In-orbit conjunctions

There are no conjunctions computed for COSMOS 1413 (GLONASS), at the moment. Check back to stay up to date, as we update our databases every day.

Go to all conjunctions

Associated space launch

GLONASS navigation satellite

COSMOS 1413 (GLONASS) was lifted into orbit during the mission ‘Proton | Uragan 1’, on board a Proton space rocket.

The launch took place on Oct. 12, 1982, 2:56 p.m. from 200/39 (200L).

For more information about the launch, click the button.

Launch to space Proton | Uragan 1
Proton | Uragan 1

Agency: N/A

Status: Launch Successful

Launch date: Oct. 12, 1982, 2:56 p.m. UTC

Rocket: Proton

Launch pad: 200/39 (200L)

Location: Baikonur Cosmodrome, Republic of Kazakhstan

...

Latest news about this satellite

There are no fresh news available about this satellite. Check back as we update our databases every day.


Newsletter sign-up

Weekly statistics, charts and insights to help you stay on top of the space industry.